SCP
1 1 1 1 1 1 0 0 0 0 0 0 0 0 0 0 0 0 0 0 0 0 0 0 0 0 0 0 0 0 0 0 0 0 0 0 0 0
1 1 1 1 1 0 0 0 0 0 0 0 0 0 0 0 0 0 0 0 0 0 0 0 0 0 0 0 0 0 0 0 0 0 0 0 0 0
0 0 0 0 0 0 0 0 0 0 0 0 0 0 0 0 0 0 0 0 0 0 0 0 0 0 0 0 0 0 0 0 0 0 0 0 0 0
0 0 0 0 0 0 0 0 0 0 0 0 0 0 0 0 0 0 0 0 0 0 0 0 0 0 0 0 0 0 0 0 0 0 0 0 0 0
0 0 0 0 0 0 0 0 0 0 0 0 0 0 0 0 0 0 0 0 0 0 0 0 0 0 0 0 0 0 0 0 0 0 0 0 0 0
0 0 0 0 0 0 0 0 0 0 0 0 0 0 0 0 0 0 0 0 0 0 0 0 0 0 0 0 0 0 0 0 0 0 0 0 0 0
0 0 0 0 0 0 0 0 0 0 0 0 0 0 0 0 0 0 0 0 0 0 0 0 0 0 0 0 0 0 0 0 0 0 0 0 0 0
0 0 0 0 0 0 0 0 0 0 0 0 0 0 0 0 0 0 0 0 0 0 0 0 0 0 0 0 0 0 0 0 0 0 0 0 0 0
0 0 0 0 0 0 0 0 0 0 0 0 0 0 0 0 0 0 0 0 0 0 0 0 0 0 0 0 0 0 0 0 0 0 0 0 0 0
0 0 0 0 0 0 0 0 0 0 0 0 0 0 0 0 0 0 0 0 0 0 0 0 0 0 0 0 0 0 0 0 0 0 0 0 0 0
0 0 0 0 0 0 0 0 0 0 0 0 0 0 0 0 0 0 0 0 0 0 0 0 0 0 0 0 0 0 0 0 0 0 0 0 0 0
0 0 0 0 0 0 0 0 0 0 0 0 0 0 0 0 0 0 0 0 0 0 0 0 0 0 0 0 0 0 0 0 0 0 0 0 0 0
0 0 0 0 0 0 0 0 0 0 0 0 0 0 0 0 0 0 0 0 0 0 0 0 0 0 0 0 0 0 0 0 0 0 0 0 0 0
0 0 0 0 0 0 0 0 0 0 0 0 0 0 0 0 0 0 0 0 0 0 0 0 0 0 0 0 0 0 0 0 0 0 0 0 0 0
0 0 0 0 0 0 0 0 0 0 0 0 0 0 0 0 0 0 0 0 0 0 0 0 0 0 0 0 0 0 0 0 0 0 0 0 0 0
0 0 0 0 0 0 0 0 0 0 0 0 0 0 0 0 0 0 0 0 0 0 0 0 0 0 0 0 0 0 0 0 0 0 0 0 0 0
0 0 0 0 0 0 0 0 0 0 0 0 0 0 0 0 0 0 0 0 0 0 0 0 0 0 0 0 0 0 0 0 0 0 0 0 0 0
0 0 0 0 0 0 0 0 0 0 0 0 0 0 0 0 0 0 0 0 0 0 0 0 0 0 0 0 0 0 0 0 0 0 0 0 0 0
0 0 0 0 0 0 0 0 0 0 0 0 0 0 0 0 0 0 0 0 0 0 0 0 0 0 0 0 0 0 0 0 0 0 0 0 0 0
0 0 0 0 0 0 0 0 0 0 0 0 0 0 0 0 0 0 0 0 0 0 0 0 0 0 0 0 0 0 0 0 0 0 0 0 0 0
0 0 0 0 0 0 0 0 0 0 0 0 0 0 0 0 0 0 0 0 0 0 0 0 0 0 0 0 0 0 0 0 0 0 0 0 0 0
0 0 0 0 0 0 0 0 0 0 0 0 0 0 0 0 0 0 0 0 0 0 0 0 0 0 0 0 0 0 0 0 0 0 0 0 0 0
0 0 0 0 0 0 0 0 0 0 0 0 0 0 0 0 0 0 0 0 0 0 0 0 0 0 0 0 0 0 0 0 0 0 0 0 0 0
Wind_Speed
4 4 3 2 2 2 2 3 4 4 3 4 3 3 2 1 2 2 3 6 6 6 7 7 7 8 8 7 6 6 6 6 5 4 4 4 2 0
3 4 4 3 2 2 2 3 3 4 3 2 2 2 2 2 2 2 3 5 6 6 6 6 7 8 9 7 7 7 7 7 6 5 5 5 4 4
4 4 4 4 3 2 2 2 3 3 4 2 1 2 2 2 2 2 2 2 3 6 6 6 7 8 9 9 9 9 8 8 8 8 8 7 7 6
6 5 5 3 4 3 2 3 2 3 3 3 2 2 2 2 2 2 1 1 2 5 6 6 7 8 8 9 9 9 9 9 9 8 8 8 8 8
6 6 5 5 4 3 3 2 2 2 2 2 2 2 1 2 2 2 1 1 2 3 4 6 7 8 8 9 10 10 9 9 9 9 9 8 9 9
5 4 5 5 4 4 3 3 3 3 3 3 2 2 2 2 2 2 2 1 1 1 3 4 5 7 8 9 9 9 9 9 9 10 10 10 9 9
5 4 4 4 3 3 2 3 3 3 3 3 3 3 3 3 4 3 2 2 2 1 1 1 1 2 3 5 6 8 8 8 9 9 10 10 10 9
6 5 5 5 5 5 4 2 2 3 4 4 4 4 5 4 4 3 3 3 3 2 2 1 1 1 2 3 5 6 6 7 8 8 8 9 9 9
7 6 5 4 5 4 4 4 3 1 2 3 4 4 4 4 5 5 4 3 2 2 2 2 2 1 1 2 4 4 4 5 6 6 7 7 8 8
6 6 6 6 5 5 4 3 3 2 1 2 3 2 2 3 4 4 4 3 2 1 1 2 2 2 1 1 3 3 3 3 4 4 4 5 5 5
6 6 6 6 8 8 6 5 4 3 3 3 3 3 4 5 5 4 4 3 2 3 2 2 2 1 2 2 1 2 2 2 2 3 3 3 3 2
5 6 8 8 10 11 7 6 5 4 4 4 5 5 5 5 4 3 3 3 2 2 3 2 2 2 2 2 1 1 1 1 1 1 2 2 2 2
5 5 6 11 11 12 9 5 5 5 5 4 4 4 3 3 2 2 1 1 1 1 3 2 2 2 1 1 2 2 2 2 2 1 1 1 2 3
6 5 6 12 12 12 9 8 8 7 4 4 4 3 3 3 2 2 2 2 2 1 3 2 1 2 2 2 2 2 2 2 2 2 2 2 3 4
5 8 9 12 11 9 10 11 9 6 5 5 4 4 3 3 3 3 3 3 3 2 2 1 1 2 1 2 1 2 2 2 3 3 3 3 3 3
6 8 11 11 8 7 8 8 7 6 6 5 4 4 4 4 4 3 3 3 2 2 2 2 2 2 2 3 3 3 3 2 2 3 3 4 4 4
7 5 5 6 7 6 6 6 6 6 6 5 5 5 5 4 4 4 3 3 3 3 3 3 3 3 3 3 4 4 4 4 3 3 3 4 5 5
9 6 7 7 8 8 7 7 7 7 7 6 6 6 5 5 5 4 4 5 5 4 4 4 4 3 3 6 9 6 4 4 3 4 4 4 5 5
8 6 7 7 7 7 7 7 7 7 6 6 6 6 6 6 6 6 6 5 5 5 4 4 5 4 4 3 5 10 5 3 3 4 5 5 5 5
6 7 7 7 7 7 7 7 7 6 7 7 7 7 7 7 7 7 7 7 6 6 5 6 6 7 5 3 1 4 10 6 4 4 4 5 6 7
6 6 6 6 6 7 7 7 7 7 7 7 7 8 7 7 7 7 7 9 8 6 7 7 6 8 3 2 3 4 5 10 8 5 4 4 4 4
6 6 6 6 6 6 6 7 7 7 8 8 7 7 7 8 8 9 8 8 8 7 7 5 5 6 6 7 7 5 4 5 9 13 13 10 5 4
5 5 5 6 6 6 6 7 8 7 7 7 7 7 8 8 7 7 8 8 7 7 7 6 6 6 7 7 7 6 7 6 5 6 8 14 19 19
Wind_Direction
178 182 190 194 201 213 228 236 247 250 224 176 169 153 138 98 61 35 46 56 51 53 47 38 29 23 15 12 18 18 18 20 24 20 13 16 12 181
165 175 182 186 185 193 210 225 239 255 255 136 156 147 145 127 94 63 60 60 57 56 55 45 40 33 25 34 37 34 30 28 30 31 29 37 53 80
172 180 182 179 183 186 196 212 221 233 241 162 133 141 159 150 117 82 54 43 58 57 55 52 49 45 40 41 44 44 41 38 37 42 44 46 53 67
178 179 180 176 183 183 189 201 213 225 236 209 165 162 160 151 135 115 83 54 54 58 55 54 57 57 51 46 47 46 44 43 43 47 49 50 55 61
179 182 180 181 185 185 189 195 201 209 227 215 173 154 144 150 151 135 127 104 69 56 57 59 60 60 58 52 49 47 47 46 47 51 54 55 57 58
173 177 179 186 187 183 186 193 197 204 202 198 179 168 160 160 177 176 178 174 144 68 67 60 63 62 56 51 48 46 47 49 52 57 58 56 55 57
165 170 170 168 172 182 186 192 195 203 200 199 191 180 180 178 192 182 188 171 169 198 181 91 78 72 61 50 46 47 49 52 54 56 59 60 58 57
168 167 161 164 163 167 166 184 214 215 208 207 210 208 202 194 176 177 169 182 189 173 210 151 137 98 58 43 38 46 51 56 57 56 57 58 59 59
173 170 167 164 166 160 152 158 166 192 247 236 227 221 203 187 177 181 186 200 173 131 200 174 170 156 97 45 33 43 54 59 56 55 56 57 56 57
181 180 175 174 176 177 174 167 161 153 197 233 242 231 211 176 179 178 162 137 108 125 239 199 174 175 154 123 48 34 52 59 56 55 55 55 50 46
183 186 186 186 180 182 179 172 168 145 108 100 91 112 125 138 147 143 152 167 174 165 189 212 163 175 193 190 106 38 36 42 42 39 36 37 36 19
182 188 196 197 187 188 190 185 187 173 156 140 126 121 127 131 148 175 172 180 167 170 169 188 162 173 195 183 197 217 206 136 4 346 342 348 342 299
184 188 193 198 199 197 198 201 194 174 171 167 157 148 143 137 138 127 127 166 179 164 145 161 167 181 201 188 193 209 234 239 239 243 257 276 288 293
194 192 190 194 199 199 200 194 184 177 176 179 182 177 172 164 141 117 97 78 62 83 129 142 160 177 184 209 201 191 215 231 246 252 250 244 247 261
194 192 190 193 197 201 202 194 187 186 186 193 197 191 176 152 141 130 116 104 92 86 105 128 162 170 218 232 225 216 228 225 224 238 244 248 252 250
193 192 194 196 197 198 196 198 197 197 197 205 199 181 160 162 174 170 169 169 175 166 152 165 184 195 218 232 240 241 231 233 222 232 248 255 253 246
170 169 178 182 191 194 197 199 197 196 204 203 194 186 182 182 182 176 178 184 200 186 176 177 188 211 244 247 239 237 234 234 234 235 243 254 250 243
176 183 190 194 198 197 198 199 200 203 203 198 198 198 194 192 187 181 189 200 209 206 193 176 173 191 223 234 221 238 238 237 232 227 235 253 260 247
198 198 200 202 203 201 202 203 204 202 195 197 200 200 199 198 196 195 196 203 212 210 200 186 189 200 222 241 195 207 226 224 222 227 232 240 260 266
205 206 207 206 204 204 205 205 204 198 195 201 203 202 200 201 203 204 203 205 209 207 205 200 203 208 218 246 249 203 213 225 226 234 241 250 263 270
205 208 208 207 206 206 206 205 203 201 199 199 203 202 201 202 207 208 208 209 211 211 215 215 213 204 208 210 242 239 215 217 229 236 238 251 262 259
210 211 209 207 206 206 206 204 203 204 202 203 204 203 201 203 209 209 208 207 210 216 221 213 170 177 193 213 232 240 234 217 228 238 245 241 240 246
214 213 211 208 207 205 204 206 206 207 204 203 203 203 202 204 208 209 209 211 213 212 211 203 189 195 209 220 234 242 245 240 240 241 242 239 242 252